Regional Weather Roundup
Issued by NWS

Home | Current Version | Previous Version | Graphics & Text | Print | Product List | Glossary Off
Versions: 1 2 3 4 5 6 7 8 9 10 11 12 13 14 15 16 17 18 19 20 21 22 23 24 25 26 27 28 29 30 31 32 33 34 35 36 37 38 39 40 41 42 43 44 45 46 47 48 49 50

000
ASUS43 KDTX 251810
RWRMI
MICHIGAN HOURLY REGIONAL WEATHER ROUNDUP
NATIONAL WEATHER SERVICE DETROIT/PONTIAC MI
200 PM EDT MON MAY 25 2015

NOTE: "FAIR" INDICATES FEW OR NO CLOUDS BELOW 12,000 FEET WITH NO
SIGNIFICANT WEATHER AND/OR OBSTRUCTION TO VISIBILITY.

MIZ047>049-052>055-059>063-066>070-074>076-081>083-251900-
SOUTHEAST LOWER MICHIGAN

CITY           SKY/WX    TMP DP  RH WIND       PRES   REMARKS
ADRIAN         PTSUNNY   79  62  56 SW23G38   29.99S
6HR MIN TEMP:  69; 6HR MAX TEMP:  80; 6HR PCP: TRACE;

ALMA           CLOUDY    76  69  78 SW17G25   29.88F
ANN ARBOR      LGT RAIN  71  64  78 SW21G35   29.98S
BAD AXE        CLOUDY    75  62  62 S16       29.91F
CARO           PTSUNNY   80  65  61 S17       29.89F
DETROIT CITY   PTSUNNY   81  63  54 SW17G33   29.96F
6HR MIN TEMP:  68; 6HR MAX TEMP:  81; 6HR PCP: TRACE;

DETROIT        CLOUDY    81  62  52 S24G33    29.97F
6HR MIN TEMP:  71; 6HR MAX TEMP:  83; 6HR PCP: TRACE;

FLINT          CLOUDY    80  63  55 S15G22    29.92F
6HR MIN TEMP:  71; 6HR MAX TEMP:  81; 6HR PCP: TRACE;

GROSSE ILE     PTSUNNY   73  64  73 S16       29.97F
HILLSDALE      PTSUNNY   76  68  78 SW17G25   29.99F
6HR MIN TEMP:  69; 6HR MAX TEMP:  77;

HOWELL         CLOUDY    71  67  88 SW12      29.96R
6HR MIN TEMP:  68; 6HR MAX TEMP:  79;


CITY           SKY/WX    TMP DP  RH WIND       PRES   REMARKS
JACKSON        PTSUNNY   76  65  68 SW23G36   29.95F
6HR MIN TEMP:  69; 6HR MAX TEMP:  78; 6HR PCP:  0.01;

LAMBERTVILLE   PTSUNNY   81  61  50 SW13G26   30.00S
LANSING        LGT RAIN  71  64  78 S16G33    29.92S
6HR MIN TEMP:  69; 6HR MAX TEMP:  79; 6HR PCP:  0.02;

LAPEER         PTSUNNY   80  61  52 SW18G29   29.93F
MASON          PTSUNNY   71  66  84 SW13G22   29.94F
MONROE         PTSUNNY   81  63  54 SW16G25   29.97F
MT. CLEMENS    PTSUNNY   80  65  58 S16G29    29.94F
6HR MIN TEMP:  66; 6HR MAX TEMP:  80; 6HR PCP: TRACE;

PONTIAC        CLOUDY    79  63  57 S14G24    29.94F
6HR MIN TEMP:  67; 6HR MAX TEMP:  79; 6HR PCP: TRACE;

PORT HOPE        N/A     77  63  61 VRB7      29.89S
6HR MIN TEMP:  66; 6HR MAX TEMP:  79;

PORT HURON     PTSUNNY   79  64  61 S14       29.96F
TRI CITIES     CLOUDY    72  64  76 SW16      29.88F
6HR MIN TEMP:  70; 6HR MAX TEMP:  79; 6HR PCP:  0.14;

MIDLAND        PTSUNNY   72  67  85 SW9       29.87F
TROY           PTSUNNY   80  62  52 SW16G26   29.97F
SAGINAW HB     CLOUDY    73  63  68 W16G26    29.88F
$$
MIZ043>046-050>051-056>058-064>065-071>073-077>080-251900-
SOUTHWEST LOWER MICHIGAN

CITY           SKY/WX    TMP DP  RH WIND       PRES   REMARKS
BATTLE CREEK   PTSUNNY   79  62  56 S24G33    29.92F
6HR MIN TEMP:  71; 6HR MAX TEMP:  79; 6HR PCP: TRACE;

BENTON HARBOR  PTSUNNY   70  64  81 W15       29.91S
6HR MIN TEMP:  67; 6HR MAX TEMP:  76; 6HR PCP:  0.04;

BIG RAPIDS     RAIN      71  63  74 SW14G24   29.85R
6HR MIN TEMP:  59; 6HR MAX TEMP:  75; 6HR PCP:  0.04;

COLDWATER      PTSUNNY   77  63  62 SW17G32   29.96F
6HR MIN TEMP:  69; 6HR MAX TEMP:  77;

FREMONT        LGT RAIN  69  64  83 SW15G30   29.86R
HOLLAND        PTSUNNY   70  62  76 SW30G36   29.91R
6HR MIN TEMP:  69; 6HR MAX TEMP:  78; 6HR PCP: TRACE;

GRAND RAPIDS   HVY RAIN  68  66  93 SW20G31   29.90R VSB 1/2
6HR MIN TEMP:  69; 6HR MAX TEMP:  77; 6HR PCP:  0.08;

IONIA          PTSUNNY   78  63  60 SW22G31   29.87F
KALAMAZOO      PTSUNNY   80  61  52 SW24G33   29.91F
6HR MIN TEMP:  71; 6HR MAX TEMP:  81; 6HR PCP: TRACE;

LUDINGTON      CLOUDY    66  62  86 S21G30    29.82S
6HR MIN TEMP:  65; 6HR MAX TEMP:  73;

MARSHALL       PTSUNNY   77  64  65 S24G32    29.94F
MOUNT PLEASANT CLOUDY    75  67  77 S15       29.86F
6HR MIN TEMP:  66; 6HR MAX TEMP:  76; 6HR PCP:  0.01;

MUSKEGON       LGT RAIN  62  57  83 SW17      29.88R
6HR MIN TEMP:  62; 6HR MAX TEMP:  75; 6HR PCP: TRACE;

SOUTH HAVEN    PTSUNNY   68  62  81 SW10G17   29.91S
$$
MIZ016>042-251900-
NORTHERN LOWER MICHIGAN

CITY           SKY/WX    TMP DP  RH WIND       PRES   REMARKS
ALPENA         CLOUDY    70  63  78 SE6       29.84F
6HR MIN TEMP:  53; 6HR MAX TEMP:  70; 6HR PCP: TRACE;

BEAVER ISLAND  DRIZZLE   65  64  94 S9        29.75F
6HR MIN TEMP:  55; 6HR MAX TEMP:  65;

BELLAIRE       CLOUDY    73  63  70 S9G16     29.77F
6HR MIN TEMP:  61; 6HR MAX TEMP:  74;

CADILLAC       CLOUDY    74  64  68 S17G32    29.82S
CHARLEVOIX     CLOUDY    72  66  82 S10       29.79F
FRANKFORT      CLOUDY    69  62  77 S18G32    29.78F
GAYLORD        CLOUDY    73  66  78 S15       29.81F
6HR MIN TEMP:  59; 6HR MAX TEMP:  73; 6HR PCP:  0.01;

GRAYLING       CLOUDY    75  64  69 S18G32    29.83F
HARBOR SPRINGS CLOUDY    72  66  81 S6        29.77F
HOUGHTON LAKE  CLOUDY    71  67  87 S9        29.85F
6HR MIN TEMP:  61; 6HR MAX TEMP:  72; 6HR PCP:  0.15;

MANISTEE       CLOUDY    66  63  88 S17G23    29.81S
OSCODA         PTSUNNY   75  64  67 S12G18    29.85F
PELLSTON       CLOUDY    68  64  87 S8        29.78F
6HR MIN TEMP:  58; 6HR MAX TEMP:  68; 6HR PCP:  0.15;

ROGERS CITY    CLOUDY    55  54  96 CALM      29.83F
TRAVERSE CITY  LGT RAIN  74  64  71 SW9G28    29.77F
6HR MIN TEMP:  62; 6HR MAX TEMP:  77; 6HR PCP:  0.01;

$$
MIZ007>008-015-251900-
EASTERN UPPER MICHIGAN

CITY           SKY/WX    TMP DP  RH WIND       PRES   REMARKS
KINROSS        CLOUDY    55  55 100 E14       29.81F
6HR MIN TEMP:  54; 6HR MAX TEMP:  55;

MACKINAC ISLAN CLOUDY    45  45 100 E10G18    29.80F FOG
6HR MIN TEMP:  45; 6HR MAX TEMP:  55; 6HR PCP:  0.32;

NEWBERRY       CLOUDY    56  56  99 SE7       29.76F FOG
6HR MIN TEMP:  55; 6HR MAX TEMP:  56; 6HR PCP:  0.30;

S. S. MARIE    CLOUDY    56  54  93 SE9G18    29.82F
6HR MIN TEMP:  55; 6HR MAX TEMP:  57; 6HR PCP:  0.47;

MUNISING         N/A     61  58  90 S5        29.69F
6HR MIN TEMP:  59; 6HR MAX TEMP:  62; 6HR PCP:  0.42;

$$
MIZ004>006-011>014-085-251900-
CENTRAL UPPER MICHIGAN

CITY           SKY/WX    TMP DP  RH WIND       PRES   REMARKS
MANISTIQUE     DRZL/FOG  55  54  97 SE8       29.73F VSB 1/2
6HR MIN TEMP:  54; 6HR MAX TEMP:  56; 6HR PCP:  0.16;

ESCANABA       CLOUDY    54  48  82 SE5       29.69F
6HR MIN TEMP:  52; 6HR MAX TEMP:  55;

MENOMINEE      CLOUDY    64  63  94 SW13      29.68S
6HR MIN TEMP:  54; 6HR MAX TEMP:  64; 6HR PCP:  0.06;

SAWYER-GWINN   RAIN      57  55  94 SE5       29.69F
$$
MIZ001>003-009>011-084-251900-
WESTERN UPPER MICHIGAN

CITY           SKY/WX    TMP DP  RH WIND       PRES   REMARKS
IRON MOUNTAIN  LGT RAIN  59  57  93 SE3       29.69S
6HR MIN TEMP:  56; 6HR MAX TEMP:  59; 6HR PCP:  0.63;

HOUGHTON       RAIN      49  48  97 E12       29.69F FOG
6HR MIN TEMP:  48; 6HR MAX TEMP:  54; 6HR PCP:  0.88;

COPPER HARBOR    N/A     52  50  93 SE9       29.71F
6HR MIN TEMP:  52; 6HR MAX TEMP:  58; 6HR PCP:  0.44;

IRONWOOD       CLOUDY    61  61 100 W7        29.63S
6HR MIN TEMP:  57; 6HR MAX TEMP:  61;

$$

ABBREVIATIONS USED IN REMARKS
   TC - TEMPERATURE IN CELSIUS
  WCI - WIND CHILL INDEX
   HX - HEAT INDEX
  VSB - VISIBILITY




USA.gov is the U.S. government's official web portal to all federal, state and local government web resources and services.